• In Hungary
  • List of Countries
  • For 7 days
  • Water Temperature
  • Satellite Maps
  • Weather Map
  • News
  • Weather Widgets
  • user-avatar
    Login

    Hourly Weather Sabadell

    Today, 15 November, Thursday

    Time Temperature Precipitation Wind Pressure Humidity
    00:00 +14°C° 0.2 mm 3 mps 747 mmHg 87%
    01:00 +14°C° 0.2 mm 3 mps 747 mmHg 87%
    02:00 +14°C° 0.2 mm 3 mps 747 mmHg 87%
    03:00 +13°C° 0.2 mm 3 mps 747 mmHg 86%
    04:00 +13°C° 0.1 mm 3 mps 746 mmHg 86%
    05:00 +13°C° 0.1 mm 3 mps 746 mmHg 86%
    06:00 +13°C° 0.1 mm 4 mps 746 mmHg 86%
    07:00 +14°C° 0 mm 3 mps 746 mmHg 83%
    08:00 +16°C° 0 mm 3 mps 746 mmHg 80%
    09:00 +17°C° 0 mm 3 mps 747 mmHg 76%
    10:00 +18°C° 0.1 mm 4 mps 747 mmHg 73%
    11:00 +19°C° 0.1 mm 4 mps 746 mmHg 69%
    12:00 +20°C° 0.1 mm 4 mps 746 mmHg 65%
    13:00 +20°C° 0.2 mm 4 mps 746 mmHg 67%
    14:00 +19°C° 0.2 mm 4 mps 746 mmHg 69%
    15:00 +19°C° 0.2 mm 4 mps 746 mmHg 71%
    16:00 +18°C° 0.1 mm 3 mps 746 mmHg 76%
    17:00 +17°C° 0.1 mm 3 mps 746 mmHg 82%
    18:00 +16°C° 0.1 mm 3 mps 746 mmHg 87%
    19:00 +16°C° 0.1 mm 3 mps 746 mmHg 88%
    20:00 +14°C° 0.1 mm 3 mps 746 mmHg 88%
    21:00 +14°C° 0.1 mm 3 mps 746 mmHg 89%
    22:00 +14°C° 0.2 mm 3 mps 747 mmHg 89%
    23:00 +13°C° 0.2 mm 3 mps 747 mmHg 88%

    Tomorrow, 16 November, Friday

    Time Temperature Precipitation Wind Pressure Humidity
    00:00 +13°C° 0.2 mm 3 mps 747 mmHg 88%
    01:00 +13°C° 0 mm 3 mps 747 mmHg 88%
    02:00 +13°C° 0 mm 3 mps 747 mmHg 87%
    03:00 +13°C° 0 mm 3 mps 747 mmHg 87%
    04:00 +13°C° 0 mm 3 mps 747 mmHg 86%
    05:00 +12°C° 0 mm 3 mps 747 mmHg 86%
    06:00 +12°C° 0 mm 3 mps 747 mmHg 85%
    07:00 +13°C° 0 mm 3 mps 747 mmHg 82%
    08:00 +14°C° 0 mm 3 mps 747 mmHg 79%
    09:00 +16°C° 0 mm 3 mps 747 mmHg 76%
    10:00 +17°C° 0 mm 3 mps 747 mmHg 74%
    11:00 +18°C° 0 mm 3 mps 747 mmHg 71%
    12:00 +19°C° 0 mm 4 mps 747 mmHg 68%
    13:00 +18°C° 0 mm 4 mps 747 mmHg 69%
    14:00 +18°C° 0 mm 4 mps 746 mmHg 69%
    15:00 +18°C° 0 mm 4 mps 746 mmHg 70%
    16:00 +17°C° 0 mm 4 mps 746 mmHg 75%
    17:00 +15°C° 0 mm 4 mps 746 mmHg 80%
    18:00 +14°C° 0 mm 3 mps 746 mmHg 85%
    19:00 +13°C° 0 mm 4 mps 746 mmHg 87%
    20:00 +13°C° 0 mm 4 mps 746 mmHg 88%
    21:00 +13°C° 0 mm 4 mps 746 mmHg 89%
    22:00 +13°C° 0 mm 4 mps 746 mmHg 89%
    23:00 +12°C° 0 mm 4 mps 746 mmHg 89%

    Day after tomorrow, 17 November, Saturday

    Time Temperature Precipitation Wind Pressure Humidity
    00:00 +12°C° 0 mm 4 mps 746 mmHg 90%
    01:00 +12°C° 0 mm 4 mps 746 mmHg 88%
    02:00 +12°C° 0 mm 4 mps 746 mmHg 87%
    03:00 +11°C° 0 mm 4 mps 745 mmHg 85%
    04:00 +11°C° 0 mm 4 mps 745 mmHg 84%
    05:00 +11°C° 0 mm 4 mps 745 mmHg 82%
    06:00 +11°C° 0 mm 4 mps 745 mmHg 81%
    07:00 +12°C° 0 mm 5 mps 745 mmHg 79%
    08:00 +12°C° 0 mm 5 mps 745 mmHg 76%
    09:00 +13°C° 0 mm 5 mps 745 mmHg 74%
    10:00 +13°C° 0 mm 6 mps 745 mmHg 73%
    11:00 +13°C° 0 mm 6 mps 745 mmHg 71%
    12:00 +14°C° 0 mm 6 mps 744 mmHg 70%
    13:00 +13°C° 0.1 mm 6 mps 744 mmHg 71%
    14:00 +13°C° 0.1 mm 6 mps 744 mmHg 72%
    15:00 +12°C° 0.1 mm 7 mps 743 mmHg 73%
    16:00 +11°C° 0.1 mm 7 mps 743 mmHg 75%
    17:00 +11°C° 0.1 mm 7 mps 743 mmHg 76%
    18:00 +10°C° 0.1 mm 7 mps 743 mmHg 78%
    19:00 +10°C° 0.2 mm 7 mps 743 mmHg 79%
    20:00 +10°C° 0.2 mm 7 mps 743 mmHg 79%
    21:00 +10°C° 0.2 mm 7 mps 743 mmHg 80%
    22:00 +10°C° 0.2 mm 6 mps 743 mmHg 81%
    23:00 +10°C° 0.2 mm 6 mps 742 mmHg 81%

    18 November, Sunday

    Time Temperature Precipitation Wind Pressure Humidity
    00:00 +10°C° 0.2 mm 6 mps 742 mmHg 81%
    01:00 +10°C° 0.2 mm 6 mps 741 mmHg 82%
    02:00 +9°C° 0.2 mm 6 mps 741 mmHg 83%
    03:00 +9°C° 0.2 mm 6 mps 741 mmHg 84%
    04:00 +9°C° 0.3 mm 6 mps 740 mmHg 85%
    05:00 +9°C° 0.3 mm 7 mps 740 mmHg 86%
    06:00 +10°C° 0.3 mm 7 mps 740 mmHg 87%
    07:00 +10°C° 0.4 mm 8 mps 740 mmHg 85%
    08:00 +10°C° 0.4 mm 8 mps 740 mmHg 84%
    09:00 +11°C° 0.4 mm 8 mps 740 mmHg 82%
    10:00 +11°C° 0.9 mm 8 mps 740 mmHg 82%
    11:00 +11°C° 0.9 mm 8 mps 740 mmHg 81%
    12:00 +11°C° 0.9 mm 8 mps 740 mmHg 80%
    13:00 +11°C° 1.3 mm 8 mps 739 mmHg 82%
    14:00 +11°C° 1.3 mm 8 mps 739 mmHg 84%
    15:00 +11°C° 1.3 mm 8 mps 739 mmHg 86%
    16:00 +11°C° 1 mm 8 mps 739 mmHg 86%
    17:00 +11°C° 1 mm 8 mps 738 mmHg 86%
    18:00 +11°C° 1 mm 8 mps 738 mmHg 86%
    19:00 +11°C° 0.5 mm 8 mps 738 mmHg 86%
    20:00 +11°C° 0.5 mm 8 mps 738 mmHg 86%
    21:00 +11°C° 0.5 mm 8 mps 738 mmHg 86%
    22:00 +11°C° 0.7 mm 8 mps 738 mmHg 87%
    23:00 +11°C° 0.7 mm 8 mps 737 mmHg 87%

    19 November, Monday

    Time Temperature Precipitation Wind Pressure Humidity
    00:00 +11°C° 0.7 mm 8 mps 737 mmHg 88%
    01:00 +11°C° 1.1 mm 7 mps 736 mmHg 88%
    02:00 +11°C° 1.1 mm 7 mps 736 mmHg 88%
    03:00 +11°C° 1.1 mm 7 mps 735 mmHg 88%
    04:00 +11°C° 1 mm 7 mps 735 mmHg 88%
    05:00 +11°C° 1 mm 6 mps 735 mmHg 87%
    06:00 +11°C° 1 mm 6 mps 734 mmHg 87%
    07:00 +12°C° 0.6 mm 5 mps 734 mmHg 85%
    08:00 +13°C° 0.6 mm 5 mps 734 mmHg 84%
    09:00 +13°C° 0.6 mm 5 mps 734 mmHg 82%
    10:00 +14°C° 0.3 mm 5 mps 734 mmHg 80%
    11:00 +14°C° 0.3 mm 4 mps 734 mmHg 77%
    12:00 +15°C° 0.3 mm 4 mps 734 mmHg 75%
    13:00 +15°C° 0.1 mm 4 mps 733 mmHg 75%
    14:00 +15°C° 0.1 mm 4 mps 733 mmHg 75%
    15:00 +14°C° 0.1 mm 4 mps 733 mmHg 76%
    16:00 +14°C° 0.1 mm 4 mps 733 mmHg 78%
    17:00 +13°C° 0.1 mm 4 mps 733 mmHg 81%
    18:00 +12°C° 0.1 mm 4 mps 733 mmHg 83%
    19:00 +12°C° 0.1 mm 4 mps 733 mmHg 83%
    20:00 +11°C° 0.1 mm 4 mps 733 mmHg 83%
    21:00 +11°C° 0.1 mm 4 mps 733 mmHg 83%
    22:00 +11°C° 0.1 mm 4 mps 732 mmHg 82%
    23:00 +11°C° 0.1 mm 4 mps 732 mmHg 82%

    20 November, Tuesday

    Time Temperature Precipitation Wind Pressure Humidity
    00:00 +10°C° 0.1 mm 3 mps 732 mmHg 81%
    01:00 +10°C° 0.1 mm 3 mps 732 mmHg 81%
    02:00 +10°C° 0.1 mm 3 mps 732 mmHg 81%
    03:00 +10°C° 0.1 mm 3 mps 731 mmHg 80%
    04:00 +10°C° 0 mm 3 mps 731 mmHg 80%
    05:00 +10°C° 0 mm 3 mps 731 mmHg 80%
    06:00 +10°C° 0 mm 2 mps 731 mmHg 80%
    07:00 +10°C° 0 mm 2 mps 732 mmHg 77%
    08:00 +12°C° 0 mm 2 mps 732 mmHg 73%
    09:00 +13°C° 0 mm 1 mps 732 mmHg 70%
    10:00 +14°C° 0 mm 2 mps 733 mmHg 67%
    11:00 +15°C° 0 mm 2 mps 733 mmHg 64%
    12:00 +16°C° 0 mm 3 mps 733 mmHg 61%
    13:00 +16°C° 0 mm 3 mps 733 mmHg 62%
    14:00 +15°C° 0 mm 4 mps 733 mmHg 63%
    15:00 +15°C° 0 mm 4 mps 732 mmHg 64%
    16:00 +14°C° 0 mm 4 mps 733 mmHg 68%
    17:00 +12°C° 0 mm 4 mps 733 mmHg 72%
    18:00 +11°C° 0 mm 4 mps 733 mmHg 76%
    19:00 +11°C° 0 mm 3 mps 733 mmHg 77%
    20:00 +11°C° 0 mm 3 mps 733 mmHg 77%
    21:00 +12°C° 0 mm 2 mps 733 mmHg 78%
    22:00 +11°C° 0.1 mm 3 mps 733 mmHg 78%
    23:00 +11°C° 0.1 mm 3 mps 733 mmHg 78%
    Show more